This is the latest recevied weather packets stored in our database for station/object KE8AFF-13. If no packets are shown the sender has not sent any weather packets the latest 10 day(s).
| Time | Temp. | Humidity | Pressure | Rain* | Wind** | Luminosity | Snow |
|---|---|---|---|---|---|---|---|
| 1778264167 | 15.56° C | 62% | 1011.2 hPa | 0 mm | - | 863 W/m² | - |
| 1778263866 | 15.56° C | 61% | 1011.4 hPa | 0 mm | - | 733 W/m² | - |
| 1778263562 | 15.56° C | 61% | 1011.4 hPa | 0 mm | - | 734 W/m² | - |
| 1778263258 | 16.11° C | 63% | 1011.6 hPa | 0 mm | - | 747 W/m² | - |
| 1778262954 | 15.56° C | 64% | 1011.7 hPa | 0 mm | - | 747 W/m² | - |
| 1778262652 | 15° C | 65% | 1011.9 hPa | 0 mm | - | 321 W/m² | - |
| 1778262350 | 15° C | 64% | 1012 hPa | 0 mm | - | 802 W/m² | - |
| 1778262046 | 15° C | 66% | 1012.2 hPa | 0 mm | - | 780 W/m² | - |
| 1778261743 | 15° C | 66% | 1012.4 hPa | 0 mm | - | 314 W/m² | - |
| 1778261439 | 13.89° C | 68% | 1012.7 hPa | 0 mm | - | 936 W/m² | - |
| 1778261136 | 13.89° C | 67% | 1012.6 hPa | 0 mm | - | 1056 W/m² | - |
| 1778260833 | 13.89° C | 68% | 1012.9 hPa | 0 mm | - | 442 W/m² | - |
| 1778260529 | 13.33° C | 70% | 1013.2 hPa | 0 mm | - | 368 W/m² | - |
| 1778260226 | 12.78° C | 72% | 1013.3 hPa | 0 mm | - | 265 W/m² | - |
| 1778259923 | 12.78° C | 72% | 1013.2 hPa | 0 mm | - | 210 W/m² | - |
| 1778259621 | 12.78° C | 72% | 1013.2 hPa | 0 mm | - | 165 W/m² | - |
| 1778259318 | 12.78° C | 73% | 1013.6 hPa | 0 mm | - | 155 W/m² | - |
| 1778259014 | 12.22° C | 73% | 1013.3 hPa | 0 mm | - | 205 W/m² | - |
| 1778258711 | 12.22° C | 73% | 1013.5 hPa | 0 mm | - | 124 W/m² | - |
| 1778258408 | 12.22° C | 72% | 1013.6 hPa | 0 mm | - | 96 W/m² | - |
| 1778258105 | 12.22° C | 72% | 1013.7 hPa | 0 mm | - | 94 W/m² | - |
| 1778257801 | 12.22° C | 71% | 1013.6 hPa | 0 mm | - | 94 W/m² | - |
| 1778257499 | 12.22° C | 71% | 1013.5 hPa | 0 mm | - | 96 W/m² | - |
| 1778257195 | 12.22° C | 71% | 1013.7 hPa | 0 mm | - | 130 W/m² | - |
| 1778256893 | 12.22° C | 71% | 1013.7 hPa | 0 mm | - | 98 W/m² | - |
* Rain latest hour (hover to see other rain measurements)
** Current wind speed in m/s (hover to see current wind gust speed)